[[{"header":{"parameterUnit":"m.s-1","parameterCategory":2,"la1":30.2991,"la2":30.254,"lo1":-89.0895,"lo2":-89.0444,"dy":0.0017,"dx":0.0017,"nx":28,"ny":28,"refTime":"2026-02-10T09:00:00:Z","depth":"0","parameterNumber":2,"parameterNumberName":"U-component_of_CURRENTS"},"data":[0,0,0,0,0,0,0,0,0,0,0,0,0,0,0,0,0,0,0,0,0,0,0,0,0,0,0,0,0,0,0,0,0,0,0,0,0,0,0,0,0,0,0,0,0,0,0,0,0,0,0,0,0,0,0,0,0,0,-0.3473,-0.3474,0,-0.3553,-0.3554,-0.3555,-0.3568,-0.3567,-0.3567,-0.3566,-0.3526,-0.3525,-0.3525,0,0,0,0,0,0,0,0,0,0,0,0,0,-0.3422,-0.3422,-0.3473,-0.3474,-0.3475,-0.3553,-0.3554,-0.3555,-0.3568,-0.3567,-0.3566,-0.3566,-0.3526,-0.3525,-0.3525,0,0,0,0,0,0,0,0,0,0,0,0,0,-0.3467,-0.3422,-0.3473,-0.3491,-0.3493,-0.3553,-0.3554,-0.3556,-0.3568,-0.3567,-0.3566,-0.3565,-0.3526,-0.3525,-0.3525,-0.3542,0,0,-0.3523,-0.3522,0,0,0,0,0,0,0,0,-0.3464,-0.3469,-0.3487,-0.349,-0.3493,-0.355,-0.3522,-0.3545,-0.3569,-0.354,-0.3566,-0.3565,-0.3523,-0.3523,-0.3542,-0.354,-0.3538,-0.3523,-0.3522,-0.3522,-0.3522,0,0,0,0,0,0,0,-0.3461,-0.3466,-0.3505,-0.3489,-0.3492,-0.3526,-0.353,-0.3527,-0.3534,-0.3542,-0.3544,-0.3553,-0.3524,-0.3543,-0.3541,-0.3538,-0.3523,-0.3522,-0.3522,-0.3522,-0.3474,-0.3473,0,0,0,0,0,0,-0.3448,-0.3463,-0.3503,-0.3507,-0.3476,-0.3527,-0.3532,-0.3532,-0.3537,-0.3538,-0.3553,-0.3553,-0.3544,-0.3541,-0.3539,-0.347,-0.3522,-0.3521,-0.3521,-0.3475,-0.3473,-0.3472,0,0,0,0,0,0,-0.3446,-0.345,-0.3499,-0.3488,-0.3496,-0.3529,-0.3529,-0.3535,-0.3544,-0.3547,-0.3545,-0.3556,-0.3543,-0.354,-0.3532,-0.3472,-0.3521,-0.3521,-0.3476,-0.3474,-0.3473,-0.3389,0,0,0,0,0,0,-0.3444,-0.3449,-0.3444,-0.3486,-0.3496,-0.3507,-0.353,-0.3537,-0.3552,-0.3552,-0.3549,-0.3545,-0.3542,-0.3533,-0.3531,-0.3472,-0.352,-0.3477,-0.3475,-0.3473,-0.3393,-0.3385,-0.3378,0,0,0,0,0,-0.3442,-0.3444,-0.3443,-0.3448,-0.3488,-0.3506,-0.3513,-0.3535,-0.3553,-0.3543,-0.3557,-0.3544,-0.3519,-0.3533,-0.3531,-0.3469,-0.3478,-0.3475,-0.3474,-0.3396,-0.3387,-0.3379,0,0,0,0,0,0,-0.3419,-0.3447,-0.3447,-0.3456,-0.3463,-0.3507,-0.3515,-0.3533,-0.3543,-0.3547,-0.355,-0.3547,-0.3505,-0.3517,-0.3531,-0.3453,-0.3489,-0.3487,-0.3431,-0.3422,-0.3415,-0.336,-0.352,0,0,0,0,0,-0.3411,-0.3417,-0.3439,-0.3441,-0.3448,-0.3481,-0.3494,-0.3506,-0.3525,-0.353,-0.3523,-0.3519,-0.35,-0.3487,-0.3473,-0.3449,-0.3423,-0.3405,-0.3398,-0.3391,-0.3346,-0.327,-0.325,-0.3466,-0.3466,-0.3466,0,0,-0.3398,-0.342,-0.3418,-0.3437,-0.3454,-0.3442,-0.3485,-0.3501,-0.3477,-0.3522,-0.3487,-0.3492,-0.349,-0.3448,-0.3429,-0.3447,-0.3325,-0.3389,-0.3383,-0.3341,-0.3266,-0.3244,-0.3225,-0.3464,-0.3465,-0.3465,0,0,-0.337,-0.3397,-0.338,-0.3388,-0.3408,-0.3425,-0.3423,-0.3448,-0.3441,-0.3434,-0.3439,-0.3409,-0.3409,-0.3367,-0.3356,-0.3304,-0.3287,-0.3307,-0.322,-0.3148,-0.3128,-0.311,-0.3078,-0.3058,-0.3304,-0.3304,-0.3304,0,-0.334,-0.3318,-0.3375,-0.3361,-0.3348,-0.3408,-0.3364,-0.3383,-0.3393,-0.3365,-0.3406,-0.335,-0.3355,-0.3264,-0.3248,-0.3276,-0.3255,-0.3253,-0.3133,-0.3115,-0.3098,-0.307,-0.3048,-0.33,-0.33,-0.3301,-0.3301,0,-0.3281,-0.3266,-0.3263,-0.3249,-0.3258,-0.3233,-0.3259,-0.3251,-0.3269,-0.3268,-0.3198,-0.3211,-0.3169,-0.3165,-0.3197,-0.3069,-0.3101,-0.313,-0.3147,-0.307,-0.3047,-0.3026,-0.3294,-0.3295,-0.3296,-0.3298,0,0,-0.3137,-0.32,-0.3181,-0.3156,-0.3182,-0.3173,-0.3153,-0.3111,-0.3079,-0.3082,-0.3005,-0.2976,-0.2989,-0.2975,-0.299,-0.2927,-0.2818,-0.2977,-0.2975,-0.2928,-0.2678,-0.2601,-0.2573,-0.2828,-0.2823,-0.2819,-0.272,0,-0.3026,-0.299,-0.3042,-0.2969,-0.2932,-0.2989,-0.2963,-0.2958,-0.2968,-0.2925,-0.2909,-0.2867,-0.2918,-0.2904,-0.284,-0.2839,-0.2755,-0.2843,-0.2772,-0.2769,-0.2694,-0.2541,-0.2459,-0.2352,-0.27,-0.2697,-0.2694,0,-0.2872,-0.2878,-0.2814,-0.2813,-0.2799,-0.2785,-0.2742,-0.2731,-0.2721,-0.2731,-0.2692,-0.2717,-0.264,-0.2702,-0.2598,-0.266,-0.2635,-0.2626,-0.2624,-0.255,-0.2649,-0.248,-0.2302,-0.2295,-0.2663,-0.2665,-0.2667,0,-0.2689,-0.2674,-0.2622,-0.262,-0.266,-0.2633,-0.2641,-0.2651,-0.2644,-0.2609,-0.2612,-0.2539,-0.2533,-0.2467,-0.2495,-0.2537,-0.2383,-0.2451,-0.2337,-0.2336,-0.2243,-0.2239,-0.202,-0.2299,-0.2299,-0.2299,-0.2299,0,-0.2509,-0.2451,-0.2543,-0.2514,-0.2453,-0.2513,-0.2459,-0.2472,-0.2487,-0.2471,-0.2502,-0.2476,-0.2472,-0.243,-0.242,-0.2313,-0.2324,-0.2252,-0.2262,-0.2218,-0.2213,-0.2188,-0.2241,-0.2296,-0.2296,-0.2297,-0.2298,0,-0.2326,-0.2375,-0.2329,-0.2372,-0.2379,-0.2345,-0.2398,-0.2373,-0.2406,-0.2389,-0.2383,-0.2412,-0.2354,-0.2337,-0.2254,-0.2223,-0.2083,-0.2083,-0.2051,-0.2053,-0.1918,-0.1972,-0.1757,-0.1702,-0.191,-0.1907,-0.1904,0,-0.224,-0.2203,-0.2244,-0.224,-0.2267,-0.2256,-0.226,-0.2316,-0.2324,-0.2355,-0.2337,-0.2296,-0.225,-0.2106,-0.2019,-0.1908,-0.1948,-0.1775,-0.1795,-0.1816,-0.1886,-0.1944,-0.192,-0.1675,-0.1671,-0.1668,-0.1665,0,-0.2087,-0.2118,-0.2114,-0.2128,-0.2133,-0.2141,-0.2162,-0.2172,-0.2242,-0.2228,-0.2208,-0.2165,-0.204,-0.1886,-0.1753,-0.1689,-0.1728,-0.1694,-0.1701,-0.162,-0.168,-0.1668,-0.1893,-0.1633,-0.1636,-0.1639,-0.164,-0.1642,-0.199,-0.1972,-0.2,-0.2008,-0.2021,-0.2041,-0.198,-0.2031,-0.2024,-0.1961,-0.2054,-0.1911,-0.1819,-0.1602,-0.1527,-0.1378,-0.1463,-0.1349,-0.14,-0.1449,-0.1388,-0.1541,-0.1304,-0.1305,-0.1306,-0.1307,-0.1308,0,-0.1875,-0.1884,-0.1883,-0.191,-0.19,-0.1926,-0.1912,-0.1812,-0.1749,-0.1698,-0.164,-0.1566,-0.1439,-0.1348,-0.1217,-0.1131,-0.1126,-0.1115,-0.1188,-0.1167,-0.1266,-0.1247,-0.1003,-0.1003,-0.1003,-0.1003,-0.1003,-0.1003,-0.182,-0.1787,-0.1812,-0.1794,-0.1791,-0.1654,-0.1589,-0.1455,-0.1335,-0.1147,-0.1049,-0.101,-0.1116,-0.123,-0.1129,-0.1055,-0.1054,-0.101,-0.1044,-0.1159,-0.1187,-0.1214,-0.1203,-0.0953,-0.0953,-0.0898,-0.0898,-0.0898]},{"header":{"parameterUnit":"m.s-1","parameterCategory":2,"la1":30.2991,"la2":30.254,"lo1":-89.0895,"lo2":-89.0444,"dy":0.0017,"dx":0.0017,"nx":28,"ny":28,"refTime":"2026-02-10T09:00:00:Z","depth":"0","parameterNumber":3,"parameterNumberName":"V-component_of_CURRENTS"},"data":[0,0,0,0,0,0,0,0,0,0,0,0,0,0,0,0,0,0,0,0,0,0,0,0,0,0,0,0,0,0,0,0,0,0,0,0,0,0,0,0,0,0,0,0,0,0,0,0,0,0,0,0,0,0,0,0,0,0,0.0048,0.005,0,0.0293,0.0296,0.0299,0.051,0.0512,0.0513,0.0515,0.0835,0.0842,0.0849,0,0,0,0,0,0,0,0,0,0,0,0,0,-0.0094,-0.0093,0.0048,0.0051,0.0053,0.0292,0.0296,0.03,0.0509,0.0512,0.0514,0.0516,0.0833,0.0841,0.085,0,0,0,0,0,0,0,0,0,0,0,0,0,0.0046,-0.0093,0.0048,0.0181,0.0195,0.0291,0.0296,0.0301,0.0509,0.0512,0.0514,0.0517,0.083,0.084,0.0851,0.0862,0,0,0.0882,0.0887,0,0,0,0,0,0,0,0,0.0038,0.0052,0.0159,0.0172,0.0188,0.0368,0.0364,0.049,0.0508,0.0397,0.0515,0.0518,0.068,0.0703,0.0751,0.0877,0.0891,0.0883,0.089,0.0894,0.0897,0,0,0,0,0,0,0,0.0028,0.0044,0.0152,0.0161,0.0179,0.0278,0.03,0.0389,0.0527,0.0407,0.0421,0.0437,0.0689,0.0741,0.076,0.0896,0.0883,0.0892,0.0899,0.0903,0.1066,0.1065,0,0,0,0,0,0,-0.0026,0.0033,0.0144,0.0159,0.0111,0.0277,0.0303,0.0313,0.0525,0.0557,0.0434,0.0446,0.0722,0.0748,0.0772,0.0781,0.0894,0.0904,0.091,0.1068,0.1066,0.1064,0,0,0,0,0,0,-0.003,-0.0019,0.0134,0.0097,0.0123,0.0275,0.0286,0.0316,0.0369,0.0544,0.058,0.0455,0.0725,0.0758,0.0838,0.0796,0.0908,0.0918,0.107,0.1067,0.1065,0.081,0,0,0,0,0,0,-0.0036,-0.0022,-0.0035,0.0093,0.0122,0.0171,0.0284,0.0319,0.0371,0.0389,0.0573,0.0606,0.0729,0.0821,0.0848,0.0812,0.0926,0.1073,0.1069,0.1066,0.0821,0.0799,0.078,0,0,0,0,0,-0.0042,-0.0069,-0.0037,-0.0023,0.01,0.0169,0.0193,0.0317,0.0368,0.0377,0.0497,0.06,0.0819,0.0828,0.086,0.0826,0.1074,0.107,0.1066,0.083,0.0803,0.078,0,0,0,0,0,0,-0.0132,-0.0047,-0.0009,-0.0008,0.006,0.0202,0.022,0.0291,0.0393,0.0413,0.0578,0.0618,0.0672,0.0779,0.0785,0.0863,0.0962,0.0964,0.0772,0.0748,0.0728,0.074,0.0934,0,0,0,0,0,-0.0168,-0.0165,-0.007,-0.0072,-0.0047,0.0075,0.0117,0.0193,0.0298,0.0347,0.0463,0.0586,0.0677,0.0735,0.0835,0.0874,0.0951,0.0874,0.0854,0.0836,0.0867,0.0875,0.0857,0.105,0.105,0.105,0,0,-0.0204,-0.0159,-0.0156,-0.0092,-0.0024,0.0007,0.011,0.0155,0.0191,0.0361,0.0429,0.0516,0.067,0.0718,0.0752,0.0805,0.0818,0.083,0.0813,0.0857,0.0868,0.0849,0.0833,0.1047,0.1048,0.1048,0,0,-0.027,-0.0239,-0.0254,-0.0208,-0.0134,-0.006,-0.0064,0.0049,0.0109,0.0168,0.029,0.0348,0.0498,0.059,0.066,0.0587,0.0702,0.0606,0.0524,0.0526,0.051,0.0497,0.0549,0.0543,0.0602,0.0601,0.0601,0,-0.032,-0.0314,-0.025,-0.0244,-0.0212,-0.0105,-0.0103,-0.0034,0.0088,0.0116,0.0162,0.033,0.0446,0.0509,0.0495,0.0541,0.0576,0.0594,0.0495,0.0485,0.0476,0.0533,0.0529,0.0589,0.059,0.0592,0.0593,0,-0.0378,-0.0373,-0.0381,-0.0336,-0.0303,-0.0286,-0.0195,-0.0166,-0.0101,-0.0028,0.0023,0.0152,0.0262,0.0278,0.0383,0.0369,0.0423,0.0452,0.0545,0.044,0.0508,0.0508,0.057,0.0575,0.0579,0.0582,0,0,-0.0482,-0.0433,-0.0434,-0.0422,-0.0348,-0.0322,-0.0299,-0.0241,-0.0222,-0.0147,-0.0121,-0.0004,0.0049,0.0134,0.0224,0.024,0.0197,0.0313,0.0319,0.0347,0.0224,0.0288,0.0297,0.0179,0.0178,0.0178,0.0288,0,-0.0541,-0.0555,-0.0511,-0.0516,-0.0508,-0.0427,-0.0408,-0.0348,-0.0286,-0.0243,-0.0149,-0.0081,-0.0002,0.0036,0.005,0.0184,0.0191,0.0168,0.0344,0.0352,0.0404,0.0297,0.033,0.0432,0.029,0.029,0.0291,0,-0.0599,-0.0598,-0.0619,-0.0587,-0.058,-0.057,-0.0527,-0.0495,-0.0417,-0.0372,-0.0322,-0.0227,-0.015,-0.0092,0.0037,0.0009,0.0103,0.0184,0.0189,0.0354,0.0417,0.0524,0.0441,0.0568,0.0293,0.0293,0.0293,0,-0.0674,-0.0668,-0.0687,-0.0674,-0.0628,-0.0631,-0.0606,-0.0543,-0.0514,-0.045,-0.0425,-0.0339,-0.0261,-0.0179,0.0023,0.0013,0.0163,0.0169,0.0311,0.0319,0.0446,0.0466,0.0502,0.0223,0.0223,0.0223,0.0222,0,-0.0732,-0.0745,-0.0725,-0.0729,-0.0755,-0.0702,-0.0712,-0.0674,-0.0619,-0.0584,-0.0496,-0.0439,-0.0286,-0.0161,-0.0023,0.0168,0.0124,0.0301,0.0338,0.0358,0.0368,0.0572,0.0625,0.0227,0.0226,0.0225,0.0224,0,-0.0789,-0.0775,-0.0796,-0.0784,-0.0784,-0.0799,-0.0771,-0.0771,-0.0714,-0.0667,-0.0645,-0.0504,-0.0335,-0.0165,0.0027,0.0139,0.0388,0.0372,0.0418,0.0457,0.0682,0.0719,0.0866,0.0952,0.0523,0.0525,0.0526,0,-0.0811,-0.0829,-0.0845,-0.0865,-0.086,-0.0871,-0.0875,-0.0824,-0.0807,-0.0686,-0.0662,-0.0492,-0.0334,-0.0032,0.0178,0.0409,0.0503,0.057,0.0552,0.07,0.0769,0.0796,0.086,0.0622,0.0625,0.0627,0.0628,0,-0.0853,-0.0862,-0.0881,-0.0931,-0.0949,-0.0959,-0.0953,-0.0936,-0.085,-0.074,-0.0586,-0.0448,-0.0194,0.0096,0.0378,0.051,0.0665,0.0617,0.074,0.0829,0.0894,0.0993,0.058,0.0646,0.0644,0.0643,0.0642,0.0641,-0.0879,-0.0912,-0.0945,-0.0982,-0.1009,-0.1007,-0.0929,-0.0881,-0.0756,-0.0483,-0.0462,-0.0114,0.0055,0.046,0.0595,0.0873,0.0834,0.0963,0.0994,0.1008,0.1088,0.0737,0.0855,0.0854,0.0854,0.0854,0.0853,0,-0.0902,-0.0937,-0.099,-0.0998,-0.0982,-0.0998,-0.0936,-0.0781,-0.0529,-0.0293,-0.0038,0.0353,0.0622,0.0811,0.1085,0.1242,0.1269,0.1319,0.1355,0.14,0.1069,0.107,0.1275,0.1275,0.1274,0.1274,0.1274,0.1274,-0.0912,-0.0968,-0.0994,-0.0957,-0.0924,-0.0784,-0.0684,-0.0459,-0.0239,0.0264,0.0645,0.0837,0.0998,0.1296,0.155,0.1575,0.1717,0.1699,0.1783,0.1541,0.151,0.148,0.1492,0.1782,0.1783,0.2111,0.2115,0.2117]}],[{"header":{"parameterUnit":"m.s-1","parameterCategory":2,"la1":30.2991,"la2":30.254,"lo1":-89.0895,"lo2":-89.0444,"dy":0.0017,"dx":0.0017,"nx":28,"ny":28,"refTime":"2026-02-10T09:00:00:Z","depth":"2","parameterNumber":2,"parameterNumberName":"U-component_of_CURRENTS"},"data":[0,0,0,0,0,0,0,0,0,0,0,0,0,0,0,0,0,0,0,0,0,0,0,0,0,0,0,0,0,0,0,0,0,0,0,0,0,0,0,0,0,0,0,0,0,0,0,0,0,0,0,0,0,0,0,0,0,0,-0.2184,-0.2185,0,-0.224,-0.224,-0.2241,-0.2216,-0.2214,-0.2213,-0.2212,-0.2238,-0.224,-0.2242,0,0,0,0,0,0,0,0,0,0,0,0,0,-0.209,-0.2091,-0.2184,-0.2185,-0.2186,-0.224,-0.224,-0.2241,-0.2216,-0.2214,-0.2213,-0.2211,-0.2237,-0.224,-0.2242,0,0,0,0,0,0,0,0,0,0,0,0,0,-0.2136,-0.2092,-0.2184,-0.218,-0.218,-0.2239,-0.224,-0.2241,-0.2216,-0.2214,-0.2212,-0.221,-0.2237,-0.2239,-0.2242,-0.23,0,0,-0.2251,-0.2252,0,0,0,0,0,0,0,0,-0.2133,-0.2139,-0.218,-0.2181,-0.2181,-0.2219,-0.2217,-0.226,-0.2217,-0.2202,-0.2212,-0.2209,-0.2231,-0.2234,-0.2249,-0.2301,-0.2302,-0.2251,-0.2253,-0.2254,-0.2255,0,0,0,0,0,0,0,-0.213,-0.2137,-0.2206,-0.2181,-0.2182,-0.2187,-0.2191,-0.2225,-0.2226,-0.2203,-0.2202,-0.2209,-0.2231,-0.2246,-0.2249,-0.2303,-0.2251,-0.2254,-0.2256,-0.2257,-0.2391,-0.2393,0,0,0,0,0,0,-0.2125,-0.2134,-0.2204,-0.2207,-0.2152,-0.219,-0.2195,-0.2209,-0.2226,-0.2228,-0.2211,-0.2208,-0.2242,-0.2246,-0.225,-0.2268,-0.2254,-0.2257,-0.2259,-0.2389,-0.2391,-0.2393,0,0,0,0,0,0,-0.2123,-0.2131,-0.2202,-0.2172,-0.2181,-0.2194,-0.221,-0.2211,-0.2234,-0.2233,-0.2233,-0.2233,-0.2241,-0.2246,-0.2287,-0.227,-0.2258,-0.2261,-0.2387,-0.239,-0.2392,-0.2337,0,0,0,0,0,0,-0.2121,-0.2131,-0.2136,-0.2172,-0.2183,-0.2241,-0.2212,-0.2213,-0.2241,-0.2238,-0.2253,-0.2252,-0.2239,-0.2283,-0.229,-0.2274,-0.2263,-0.2385,-0.2388,-0.2391,-0.2337,-0.2338,-0.2339,0,0,0,0,0,-0.2117,-0.2135,-0.2136,-0.2144,-0.2191,-0.2242,-0.2249,-0.225,-0.2244,-0.2262,-0.2272,-0.2252,-0.2309,-0.2287,-0.2295,-0.2279,-0.2383,-0.2387,-0.2391,-0.2336,-0.2338,-0.2339,0,0,0,0,0,0,-0.2096,-0.2135,-0.2137,-0.2164,-0.2202,-0.2238,-0.2251,-0.2268,-0.2293,-0.2285,-0.2285,-0.2287,-0.2313,-0.233,-0.2306,-0.2336,-0.234,-0.2346,-0.2296,-0.2298,-0.2298,-0.2265,-0.2266,0,0,0,0,0,-0.2097,-0.2118,-0.216,-0.2183,-0.2201,-0.2234,-0.2254,-0.2264,-0.2293,-0.2302,-0.2312,-0.2327,-0.234,-0.2344,-0.2367,-0.2395,-0.2382,-0.2393,-0.2394,-0.2394,-0.2377,-0.236,-0.2355,-0.2407,-0.2407,-0.2407,0,0,-0.2096,-0.2119,-0.2131,-0.218,-0.2205,-0.2225,-0.2241,-0.228,-0.2287,-0.2304,-0.2318,-0.234,-0.2355,-0.2368,-0.2381,-0.2373,-0.2376,-0.2399,-0.2398,-0.2381,-0.2363,-0.2357,-0.2352,-0.2409,-0.2409,-0.2408,0,0,-0.2102,-0.2128,-0.2143,-0.2173,-0.2215,-0.2234,-0.2252,-0.2299,-0.2305,-0.2346,-0.234,-0.2348,-0.2401,-0.2373,-0.2373,-0.2406,-0.239,-0.2434,-0.2393,-0.2377,-0.237,-0.2365,-0.2337,-0.2329,-0.2423,-0.2422,-0.2422,0,-0.2098,-0.2119,-0.2158,-0.2177,-0.2195,-0.2238,-0.2256,-0.2275,-0.2326,-0.2335,-0.2345,-0.2386,-0.2385,-0.2369,-0.2364,-0.2395,-0.2397,-0.2374,-0.237,-0.2365,-0.236,-0.2333,-0.2325,-0.242,-0.2421,-0.2421,-0.2421,0,-0.2108,-0.2125,-0.2141,-0.2167,-0.2196,-0.2228,-0.2256,-0.2283,-0.2306,-0.2321,-0.2343,-0.2349,-0.2363,-0.2365,-0.2366,-0.2337,-0.2353,-0.2375,-0.2349,-0.235,-0.2324,-0.2316,-0.2417,-0.2418,-0.2419,-0.2419,0,0,-0.2099,-0.2139,-0.2142,-0.2147,-0.2195,-0.2219,-0.2236,-0.2264,-0.2269,-0.2304,-0.2304,-0.2304,-0.2315,-0.2317,-0.2319,-0.2289,-0.2237,-0.2314,-0.2314,-0.2252,-0.2202,-0.2113,-0.2097,-0.2267,-0.2266,-0.2265,-0.2194,0,-0.2093,-0.2112,-0.2139,-0.2153,-0.2164,-0.2206,-0.2217,-0.2244,-0.2271,-0.2283,-0.2279,-0.2288,-0.2294,-0.2296,-0.2267,-0.2262,-0.2218,-0.2254,-0.224,-0.2238,-0.2131,-0.2085,-0.1953,-0.187,-0.2186,-0.2185,-0.2184,0,-0.2079,-0.2096,-0.2108,-0.2137,-0.2148,-0.2159,-0.2188,-0.2207,-0.2229,-0.2252,-0.2258,-0.2274,-0.2234,-0.2246,-0.2196,-0.2231,-0.2202,-0.2187,-0.2185,-0.2109,-0.2135,-0.1927,-0.1845,-0.2172,-0.2173,-0.2174,-0.2174,0,-0.2029,-0.2067,-0.2071,-0.2084,-0.2126,-0.2138,-0.216,-0.2194,-0.2208,-0.2224,-0.2238,-0.2226,-0.2214,-0.2189,-0.2158,-0.2185,-0.2103,-0.2137,-0.2022,-0.2016,-0.19,-0.1885,-0.2075,-0.2075,-0.2075,-0.2075,-0.2075,0,-0.1998,-0.1998,-0.2047,-0.2048,-0.2055,-0.2101,-0.2112,-0.2138,-0.2171,-0.2172,-0.2209,-0.2199,-0.2203,-0.2171,-0.2143,-0.2047,-0.2088,-0.1984,-0.1979,-0.188,-0.1865,-0.2135,-0.2143,-0.2073,-0.2073,-0.2074,-0.2074,0,-0.1924,-0.1961,-0.1965,-0.2013,-0.2026,-0.2028,-0.2078,-0.2085,-0.2132,-0.2133,-0.2136,-0.2168,-0.2121,-0.2105,-0.2051,-0.2009,-0.1939,-0.1892,-0.1766,-0.1745,-0.1869,-0.1876,-0.1751,-0.1747,-0.1743,-0.174,-0.1738,0,-0.188,-0.1876,-0.1922,-0.1925,-0.1944,-0.1965,-0.1978,-0.2045,-0.2059,-0.2102,-0.2089,-0.2069,-0.2017,-0.1911,-0.183,-0.1732,-0.1825,-0.1566,-0.1568,-0.1821,-0.183,-0.1842,-0.1853,-0.1402,-0.1397,-0.1393,-0.139,0,-0.1791,-0.1813,-0.1821,-0.1835,-0.1849,-0.1865,-0.1895,-0.1902,-0.1971,-0.1975,-0.1956,-0.1916,-0.1821,-0.1655,-0.1545,-0.1484,-0.1573,-0.1478,-0.1759,-0.1505,-0.1486,-0.1498,-0.1521,-0.1354,-0.1357,-0.136,-0.1362,-0.1363,-0.1714,-0.1704,-0.1721,-0.172,-0.1742,-0.1741,-0.1702,-0.1748,-0.1742,-0.171,-0.1768,-0.1654,-0.1611,-0.1354,-0.1257,-0.1188,-0.1302,-0.1256,-0.1272,-0.129,-0.1263,-0.1239,-0.1055,-0.1056,-0.1058,-0.1059,-0.1061,0,-0.1607,-0.1607,-0.1604,-0.1595,-0.1561,-0.1617,-0.1617,-0.1555,-0.1494,-0.1503,-0.1451,-0.1264,-0.1132,-0.1097,-0.092,-0.0872,-0.0893,-0.0844,-0.0885,-0.092,-0.0952,-0.0911,-0.0607,-0.0606,-0.0604,-0.0603,0,0,-0.1551,-0.1506,-0.1504,-0.1407,-0.1397,-0.1301,-0.1266,-0.121,-0.1181,-0.1091,-0.1033,-0.1075,-0.1067,-0.0847,-0.0781,-0.0667,-0.0793,-0.0629,-0.0992,-0.1076,-0.1107,-0.1184,-0.1158,0,0,0,0,0]},{"header":{"parameterUnit":"m.s-1","parameterCategory":2,"la1":30.2991,"la2":30.254,"lo1":-89.0895,"lo2":-89.0444,"dy":0.0017,"dx":0.0017,"nx":28,"ny":28,"refTime":"2026-02-10T09:00:00:Z","depth":"2","parameterNumber":3,"parameterNumberName":"V-component_of_CURRENTS"},"data":[0,0,0,0,0,0,0,0,0,0,0,0,0,0,0,0,0,0,0,0,0,0,0,0,0,0,0,0,0,0,0,0,0,0,0,0,0,0,0,0,0,0,0,0,0,0,0,0,0,0,0,0,0,0,0,0,0,0,-0.0484,-0.0484,0,-0.0448,-0.0448,-0.0447,-0.0438,-0.0438,-0.0438,-0.0438,-0.0357,-0.0355,-0.0352,0,0,0,0,0,0,0,0,0,0,0,0,0,-0.0517,-0.0517,-0.0484,-0.0484,-0.0483,-0.0448,-0.0448,-0.0447,-0.0438,-0.0438,-0.0438,-0.0439,-0.0358,-0.0355,-0.0352,0,0,0,0,0,0,0,0,0,0,0,0,0,-0.0494,-0.0517,-0.0485,-0.0474,-0.0473,-0.0448,-0.0448,-0.0447,-0.0438,-0.0438,-0.0438,-0.0439,-0.0358,-0.0355,-0.0352,-0.0324,0,0,-0.0341,-0.0339,0,0,0,0,0,0,0,0,-0.0496,-0.0493,-0.0476,-0.0475,-0.0473,-0.0447,-0.0429,-0.0403,-0.0438,-0.0452,-0.0438,-0.0439,-0.0382,-0.0377,-0.0371,-0.032,-0.0317,-0.034,-0.0338,-0.0337,-0.0336,0,0,0,0,0,0,0,-0.0497,-0.0495,-0.047,-0.0476,-0.0474,-0.0462,-0.0459,-0.0424,-0.0415,-0.045,-0.045,-0.0445,-0.0381,-0.0374,-0.0369,-0.0315,-0.0341,-0.0337,-0.0335,-0.0334,-0.0207,-0.0206,0,0,0,0,0,0,-0.0502,-0.0496,-0.0472,-0.0469,-0.0485,-0.0461,-0.0458,-0.0456,-0.0417,-0.0411,-0.0445,-0.0444,-0.038,-0.0373,-0.0366,-0.0328,-0.0337,-0.0334,-0.0331,-0.0208,-0.0207,-0.0205,0,0,0,0,0,0,-0.0503,-0.05,-0.0473,-0.0481,-0.0477,-0.046,-0.0458,-0.0455,-0.0449,-0.0413,-0.0406,-0.0442,-0.038,-0.037,-0.0331,-0.0324,-0.0332,-0.0329,-0.021,-0.0208,-0.0206,-0.0253,0,0,0,0,0,0,-0.0504,-0.0501,-0.0504,-0.0482,-0.0477,-0.0465,-0.0457,-0.0454,-0.0446,-0.0445,-0.0408,-0.0401,-0.0379,-0.0336,-0.0328,-0.032,-0.0326,-0.0211,-0.0209,-0.0207,-0.0253,-0.0253,-0.0253,0,0,0,0,0,-0.0506,-0.0514,-0.0504,-0.0501,-0.048,-0.0465,-0.0461,-0.045,-0.0445,-0.0446,-0.0413,-0.0402,-0.0315,-0.0333,-0.0323,-0.0314,-0.0212,-0.021,-0.0207,-0.0253,-0.0253,-0.0253,0,0,0,0,0,0,-0.053,-0.0513,-0.0502,-0.0504,-0.0486,-0.0463,-0.0464,-0.0451,-0.0427,-0.0426,-0.039,-0.038,-0.034,-0.0314,-0.0334,-0.0266,-0.026,-0.0255,-0.0298,-0.0298,-0.0298,-0.0309,-0.0323,0,0,0,0,0,-0.0535,-0.0537,-0.0513,-0.0514,-0.0507,-0.0483,-0.0476,-0.0467,-0.0442,-0.0433,-0.04,-0.0359,-0.0319,-0.0301,-0.0261,-0.0228,-0.0195,-0.0211,-0.0211,-0.0212,-0.0211,-0.0153,-0.0148,-0.0196,-0.0196,-0.0196,0,0,-0.0544,-0.0535,-0.0536,-0.0519,-0.0505,-0.0498,-0.048,-0.0474,-0.0464,-0.0425,-0.0398,-0.0358,-0.0308,-0.0271,-0.025,-0.0251,-0.018,-0.0208,-0.0209,-0.0208,-0.0149,-0.0145,-0.0141,-0.0194,-0.0195,-0.0195,0,0,-0.0564,-0.0555,-0.0562,-0.0549,-0.0532,-0.0515,-0.0513,-0.0486,-0.0471,-0.044,-0.0402,-0.0358,-0.0304,-0.0264,-0.0238,-0.0209,-0.0179,-0.0194,-0.0209,-0.0153,-0.015,-0.0146,-0.0103,-0.0096,-0.0198,-0.0198,-0.0198,0,-0.0575,-0.0578,-0.0561,-0.0562,-0.0553,-0.0524,-0.0524,-0.0504,-0.0464,-0.0441,-0.0438,-0.0337,-0.0301,-0.0242,-0.0235,-0.0212,-0.0179,-0.0222,-0.0156,-0.0151,-0.0147,-0.0104,-0.0095,-0.02,-0.02,-0.02,-0.02,0,-0.0597,-0.0597,-0.0601,-0.059,-0.0578,-0.0576,-0.0544,-0.0524,-0.05,-0.0469,-0.0409,-0.0354,-0.0294,-0.0273,-0.025,-0.0191,-0.0179,-0.0164,-0.0166,-0.0145,-0.0101,-0.0091,-0.0203,-0.0202,-0.0202,-0.0201,0,0,-0.0624,-0.0618,-0.0618,-0.0618,-0.0594,-0.0588,-0.0566,-0.0531,-0.0513,-0.0464,-0.0428,-0.0355,-0.032,-0.0286,-0.0241,-0.0196,-0.0141,-0.0174,-0.017,-0.0149,-0.0024,-0.0007,0.0006,-0.0118,-0.0116,-0.0115,-0.0009,0,-0.0643,-0.0658,-0.0643,-0.0647,-0.065,-0.0615,-0.0596,-0.0559,-0.0522,-0.0478,-0.0408,-0.0358,-0.0326,-0.0299,-0.0246,-0.0166,-0.0114,-0.0171,-0.0031,-0.0027,-0.0029,0.0019,0.0001,0.0095,0.0002,0.0003,0.0005,0,-0.0667,-0.0674,-0.0687,-0.0676,-0.0673,-0.0668,-0.0633,-0.0612,-0.0542,-0.051,-0.0445,-0.0387,-0.0305,-0.0286,-0.0143,-0.0182,-0.0104,-0.0045,-0.0039,-0.0,0.001,0.0064,0.0117,0.0022,0.0021,0.002,0.0019,0,-0.0701,-0.0702,-0.0716,-0.0713,-0.0695,-0.0689,-0.0675,-0.0621,-0.06,-0.0527,-0.0504,-0.0396,-0.0343,-0.0234,-0.0112,-0.0123,0.0041,0.0044,0.0137,0.0138,0.0164,0.0165,0.0157,0.0156,0.0156,0.0156,0.0156,0,-0.073,-0.0739,-0.0737,-0.0746,-0.0758,-0.0728,-0.0724,-0.0692,-0.0639,-0.0608,-0.0525,-0.0473,-0.0327,-0.0216,-0.0109,0.0046,0.0051,0.0148,0.0176,0.0148,0.0146,0.0115,0.0108,0.016,0.0159,0.0158,0.0158,0,-0.0766,-0.0762,-0.0782,-0.0778,-0.0779,-0.0789,-0.0772,-0.0764,-0.0711,-0.0669,-0.0646,-0.0519,-0.0372,-0.0225,-0.0038,0.005,0.0193,0.025,0.02,0.022,0.025,0.0241,0.0365,0.0366,0.0368,0.0369,0.037,0,-0.0784,-0.08,-0.082,-0.084,-0.0842,-0.0851,-0.0855,-0.0809,-0.0794,-0.069,-0.067,-0.0519,-0.0398,-0.0132,0.0053,0.0252,0.025,0.0346,0.0328,0.0262,0.0276,0.0264,0.0253,0.0344,0.0345,0.0345,0.0346,0,-0.0819,-0.0828,-0.0848,-0.0897,-0.0916,-0.0931,-0.0929,-0.0924,-0.0853,-0.0798,-0.0687,-0.0578,-0.0316,-0.0091,0.0158,0.027,0.0308,0.0364,0.0334,0.0285,0.0249,0.026,0.0249,0.0351,0.035,0.035,0.035,0.0349,-0.0843,-0.0872,-0.0905,-0.0948,-0.0978,-0.0999,-0.1003,-0.0975,-0.0933,-0.0822,-0.0709,-0.0527,-0.0306,0.005,0.023,0.0387,0.0382,0.0423,0.0419,0.0415,0.0385,0.0352,0.0467,0.0467,0.0467,0.0468,0.0468,0,-0.0868,-0.0903,-0.0953,-0.1002,-0.1044,-0.1043,-0.1041,-0.1014,-0.0955,-0.0824,-0.069,-0.0427,-0.0173,0.0048,0.0307,0.046,0.0443,0.048,0.043,0.0424,0.0419,0.0387,0.0472,0.0472,0.0473,0.0473,0,0,-0.0882,-0.0936,-0.0965,-0.1043,-0.1079,-0.1101,-0.1094,-0.1028,-0.0931,-0.0779,-0.0632,-0.0447,-0.0168,0.0015,0.0215,0.0351,0.0342,0.036,0.0342,0.0253,0.0247,0.0375,0.0318,0,0,0,0,0]}],[{"header":{"parameterUnit":"m.s-1","parameterCategory":2,"la1":30.2991,"la2":30.254,"lo1":-89.0895,"lo2":-89.0444,"dy":0.0017,"dx":0.0017,"nx":28,"ny":28,"refTime":"2026-02-10T09:00:00:Z","depth":"4","parameterNumber":2,"parameterNumberName":"U-component_of_CURRENTS"},"data":[0,0,0,0,0,0,0,0,0,0,0,0,0,0,0,0,0,0,0,0,0,0,0,0,0,0,0,0,0,0,0,0,0,0,0,0,0,0,0,0,0,0,0,0,0,0,0,0,0,0,0,0,0,0,0,0,0,0,-0.138,-0.1381,0,-0.1436,-0.1436,-0.1437,-0.1459,-0.1459,-0.1459,-0.1459,-0.1506,-0.1508,-0.1509,0,0,0,0,0,0,0,0,0,0,0,0,0,-0.1305,-0.1306,-0.138,-0.1381,-0.1382,-0.1436,-0.1436,-0.1437,-0.1459,-0.1459,-0.1459,-0.1459,-0.1506,-0.1507,-0.1509,0,0,0,0,0,0,0,0,0,0,0,0,0,-0.1345,-0.1306,-0.138,-0.14,-0.1403,-0.1435,-0.1436,-0.1437,-0.1459,-0.1459,-0.1459,-0.1459,-0.1505,-0.1507,-0.1509,-0.152,0,0,-0.1515,-0.1516,0,0,0,0,0,0,0,0,-0.1343,-0.1348,-0.1397,-0.1399,-0.1402,-0.1442,-0.1427,-0.1465,-0.1459,-0.1436,-0.1459,-0.1459,-0.1485,-0.1488,-0.1497,-0.1522,-0.1524,-0.1515,-0.1516,-0.1517,-0.1517,0,0,0,0,0,0,0,-0.134,-0.1346,-0.14,-0.1397,-0.1401,-0.1411,-0.1417,-0.1434,-0.1459,-0.1438,-0.1441,-0.1449,-0.1486,-0.1495,-0.1498,-0.1525,-0.1515,-0.1517,-0.1518,-0.1518,-0.1598,-0.1599,0,0,0,0,0,0,-0.1336,-0.1343,-0.1399,-0.1402,-0.1374,-0.1412,-0.1419,-0.1428,-0.1459,-0.1464,-0.1449,-0.145,-0.1492,-0.1496,-0.15,-0.1557,-0.1517,-0.1519,-0.152,-0.1597,-0.1598,-0.1599,0,0,0,0,0,0,-0.1334,-0.134,-0.1396,-0.1375,-0.1383,-0.1414,-0.1424,-0.1429,-0.1462,-0.1467,-0.1472,-0.1479,-0.1492,-0.1497,-0.1536,-0.1557,-0.1519,-0.1521,-0.1596,-0.1597,-0.1599,-0.1645,0,0,0,0,0,0,-0.1332,-0.1339,-0.1358,-0.1375,-0.1384,-0.1427,-0.1424,-0.143,-0.1466,-0.1469,-0.1494,-0.1497,-0.1492,-0.1534,-0.1538,-0.1559,-0.1523,-0.1595,-0.1596,-0.1598,-0.1642,-0.1647,-0.1652,0,0,0,0,0,-0.1329,-0.1351,-0.1358,-0.1366,-0.1404,-0.1428,-0.1434,-0.1455,-0.1468,-0.1484,-0.1506,-0.1498,-0.1548,-0.1537,-0.1542,-0.1563,-0.1594,-0.1596,-0.1598,-0.1639,-0.1646,-0.1652,0,0,0,0,0,0,-0.1332,-0.1356,-0.1364,-0.1394,-0.1415,-0.1433,-0.1459,-0.1472,-0.1503,-0.1516,-0.1518,-0.1523,-0.156,-0.1559,-0.1546,-0.1591,-0.1567,-0.157,-0.1597,-0.1603,-0.1608,-0.1605,-0.1524,0,0,0,0,0,-0.134,-0.1362,-0.1382,-0.1409,-0.1424,-0.1447,-0.1467,-0.148,-0.1504,-0.1519,-0.1539,-0.1557,-0.157,-0.1586,-0.1596,-0.1631,-0.1614,-0.1645,-0.1651,-0.1655,-0.1656,-0.166,-0.1666,-0.1607,-0.1607,-0.1607,0,0,-0.1351,-0.1366,-0.1381,-0.1412,-0.1434,-0.1456,-0.146,-0.1497,-0.1518,-0.152,-0.1569,-0.158,-0.1582,-0.1613,-0.163,-0.162,-0.1661,-0.1658,-0.1662,-0.166,-0.1663,-0.1669,-0.1674,-0.1608,-0.1608,-0.1608,0,0,-0.1369,-0.1397,-0.1418,-0.1437,-0.1472,-0.1485,-0.1501,-0.1536,-0.1557,-0.1601,-0.1601,-0.163,-0.1661,-0.1663,-0.1666,-0.171,-0.1686,-0.1715,-0.1745,-0.175,-0.1754,-0.1758,-0.1732,-0.1733,-0.1721,-0.1721,-0.1721,0,-0.1384,-0.1407,-0.1429,-0.1449,-0.1473,-0.15,-0.1527,-0.155,-0.1593,-0.1615,-0.1623,-0.1675,-0.1681,-0.1706,-0.1718,-0.1722,-0.1711,-0.1721,-0.1756,-0.176,-0.1763,-0.1735,-0.1735,-0.1723,-0.1723,-0.1723,-0.1722,0,-0.1403,-0.1433,-0.1451,-0.1483,-0.151,-0.1542,-0.1571,-0.1609,-0.1644,-0.1662,-0.1713,-0.1727,-0.1753,-0.1761,-0.1755,-0.1783,-0.1761,-0.1759,-0.1738,-0.1771,-0.174,-0.174,-0.1727,-0.1726,-0.1725,-0.1725,0,0,-0.1408,-0.1455,-0.1465,-0.1485,-0.1534,-0.1555,-0.1603,-0.1646,-0.1679,-0.1724,-0.1762,-0.1793,-0.1807,-0.1811,-0.1812,-0.182,-0.183,-0.1805,-0.1804,-0.1775,-0.182,-0.1683,-0.1669,-0.1839,-0.1839,-0.184,-0.1783,0,-0.1421,-0.1458,-0.1484,-0.1531,-0.1554,-0.1599,-0.1636,-0.1679,-0.1721,-0.1763,-0.1788,-0.1821,-0.1823,-0.1841,-0.1852,-0.1837,-0.1834,-0.1844,-0.1795,-0.1792,-0.1665,-0.1666,-0.1842,-0.1783,-0.1783,-0.1783,-0.1782,0,-0.1423,-0.145,-0.1494,-0.1552,-0.157,-0.1605,-0.1677,-0.1712,-0.1769,-0.1802,-0.1844,-0.1859,-0.1882,-0.1877,-0.1873,-0.1881,-0.1854,-0.1838,-0.1835,-0.1691,-0.1655,-0.1746,-0.1782,-0.1782,-0.1782,-0.1782,-0.1782,0,-0.1393,-0.1457,-0.1494,-0.1514,-0.1581,-0.1622,-0.1666,-0.173,-0.1761,-0.1825,-0.185,-0.1886,-0.1898,-0.1892,-0.186,-0.1874,-0.1834,-0.1845,-0.1692,-0.1682,-0.1803,-0.18,-0.1833,-0.1833,-0.1833,-0.1833,-0.1833,0,-0.1375,-0.1407,-0.1488,-0.1504,-0.1556,-0.1614,-0.1674,-0.172,-0.1783,-0.1802,-0.1864,-0.1868,-0.1906,-0.1887,-0.1861,-0.1758,-0.1832,-0.1684,-0.1658,-0.1821,-0.1821,-0.1802,-0.1799,-0.1831,-0.1831,-0.1832,-0.1832,0,-0.1316,-0.1373,-0.1418,-0.1506,-0.1537,-0.1573,-0.1662,-0.1693,-0.1767,-0.1792,-0.1809,-0.1856,-0.1822,-0.1823,-0.1794,-0.1733,-0.1667,-0.1612,-0.1761,-0.1746,-0.1513,-0.1514,-0.1439,-0.1434,-0.1429,-0.1425,-0.1422,0,-0.1279,-0.1298,-0.14,-0.1428,-0.1471,-0.1538,-0.1574,-0.1667,-0.1691,-0.1757,-0.1746,-0.1752,-0.176,-0.1597,-0.1626,-0.1547,-0.1531,-0.1489,-0.1525,-0.1491,-0.1473,-0.1481,-0.1487,-0.1415,-0.1414,-0.1413,-0.1412,0,-0.1204,-0.1258,-0.1293,-0.1351,-0.1402,-0.1446,-0.1506,-0.151,-0.1595,-0.1682,-0.1623,-0.1585,-0.1534,-0.1496,-0.1434,-0.139,-0.1518,-0.1442,-0.1452,-0.1485,-0.1461,-0.145,-0.1461,-0.1396,-0.1398,-0.14,-0.1401,0,-0.1147,-0.1157,-0.1215,-0.1249,-0.1312,-0.1321,-0.1372,-0.1383,-0.1413,-0.1492,-0.1464,-0.1465,-0.151,-0.141,-0.1359,-0.1295,-0.1284,-0.125,-0.127,-0.1287,-0.1264,-0.1212,-0.1034,0,0,0,0,0,-0.1079,-0.1076,-0.1104,-0.1134,-0.1191,-0.1218,-0.1305,-0.1359,-0.1445,-0.1359,-0.1406,-0.1347,-0.1264,-0.1273,-0.1171,-0.1292,-0.1293,-0.117,-0.1268,-0.1309,-0.1327,-0.1313,0,0,0,0,0,0,-0.1034,-0.1058,-0.1062,-0.1024,-0.1017,-0.1058,-0.1104,-0.1168,-0.1134,-0.1224,-0.1183,-0.125,-0.1189,-0.1279,-0.1133,-0.1134,-0.1165,-0.1183,-0.1179,-0.1299,-0.1316,-0.133,-0.1322,0,0,0,0,0]},{"header":{"parameterUnit":"m.s-1","parameterCategory":2,"la1":30.2991,"la2":30.254,"lo1":-89.0895,"lo2":-89.0444,"dy":0.0017,"dx":0.0017,"nx":28,"ny":28,"refTime":"2026-02-10T09:00:00:Z","depth":"4","parameterNumber":3,"parameterNumberName":"V-component_of_CURRENTS"},"data":[0,0,0,0,0,0,0,0,0,0,0,0,0,0,0,0,0,0,0,0,0,0,0,0,0,0,0,0,0,0,0,0,0,0,0,0,0,0,0,0,0,0,0,0,0,0,0,0,0,0,0,0,0,0,0,0,0,0,-0.0404,-0.0404,0,-0.0412,-0.0412,-0.0412,-0.0419,-0.0419,-0.0419,-0.0419,-0.0387,-0.0386,-0.0385,0,0,0,0,0,0,0,0,0,0,0,0,0,-0.0396,-0.0396,-0.0404,-0.0404,-0.0404,-0.0412,-0.0412,-0.0412,-0.0419,-0.0419,-0.0419,-0.0419,-0.0387,-0.0386,-0.0385,0,0,0,0,0,0,0,0,0,0,0,0,0,-0.0402,-0.0396,-0.0404,-0.0408,-0.0408,-0.0411,-0.0412,-0.0412,-0.0419,-0.0419,-0.0419,-0.0419,-0.0387,-0.0386,-0.0385,-0.0376,0,0,-0.0381,-0.038,0,0,0,0,0,0,0,0,-0.0401,-0.0402,-0.0407,-0.0407,-0.0408,-0.0414,-0.0397,-0.0398,-0.0419,-0.0415,-0.0419,-0.0419,-0.0391,-0.039,-0.0393,-0.0375,-0.0374,-0.0381,-0.038,-0.0379,-0.0379,0,0,0,0,0,0,0,-0.0401,-0.0402,-0.0408,-0.0407,-0.0407,-0.0409,-0.041,-0.0398,-0.0403,-0.0416,-0.0416,-0.0416,-0.0391,-0.0394,-0.0392,-0.0373,-0.0381,-0.038,-0.0379,-0.0378,-0.0345,-0.0345,0,0,0,0,0,0,-0.0399,-0.0402,-0.0407,-0.0408,-0.0404,-0.0409,-0.041,-0.0412,-0.0404,-0.0403,-0.0416,-0.0416,-0.0396,-0.0394,-0.0391,-0.0378,-0.0379,-0.0378,-0.0377,-0.0346,-0.0345,-0.0345,0,0,0,0,0,0,-0.0398,-0.0399,-0.0407,-0.0404,-0.0405,-0.0409,-0.0411,-0.0412,-0.0421,-0.0404,-0.0403,-0.0424,-0.0396,-0.0393,-0.0384,-0.0377,-0.0378,-0.0376,-0.0346,-0.0346,-0.0345,-0.0353,0,0,0,0,0,0,-0.0398,-0.0399,-0.0405,-0.0404,-0.0405,-0.0413,-0.0411,-0.0412,-0.042,-0.0421,-0.0411,-0.0408,-0.0396,-0.0386,-0.0383,-0.0375,-0.0375,-0.0346,-0.0346,-0.0345,-0.0353,-0.0353,-0.0354,0,0,0,0,0,-0.0398,-0.0408,-0.0406,-0.0407,-0.0412,-0.0413,-0.0414,-0.0417,-0.0421,-0.0426,-0.0418,-0.0408,-0.0382,-0.0385,-0.0381,-0.0373,-0.0346,-0.0346,-0.0345,-0.0353,-0.0353,-0.0354,0,0,0,0,0,0,-0.0409,-0.0409,-0.0407,-0.0416,-0.0415,-0.0414,-0.0422,-0.0422,-0.0422,-0.0425,-0.0409,-0.0405,-0.0395,-0.0384,-0.0388,-0.0363,-0.0361,-0.036,-0.0369,-0.0369,-0.0369,-0.0361,-0.0374,0,0,0,0,0,-0.0413,-0.0421,-0.0416,-0.0424,-0.0424,-0.0424,-0.0427,-0.0429,-0.0426,-0.0427,-0.0415,-0.0403,-0.039,-0.0381,-0.037,-0.0357,-0.0325,-0.0348,-0.0349,-0.0349,-0.034,-0.0278,-0.0271,-0.0345,-0.0345,-0.0345,0,0,-0.0421,-0.0421,-0.0426,-0.0427,-0.0428,-0.0432,-0.0427,-0.0435,-0.0435,-0.0422,-0.0419,-0.0406,-0.0388,-0.0374,-0.0368,-0.0364,-0.0315,-0.0349,-0.0349,-0.0339,-0.0276,-0.0269,-0.0262,-0.0345,-0.0345,-0.0345,0,0,-0.0437,-0.0438,-0.0448,-0.0448,-0.0449,-0.0446,-0.0449,-0.0446,-0.0444,-0.0441,-0.0427,-0.0403,-0.0397,-0.0367,-0.0356,-0.0349,-0.0322,-0.0355,-0.0344,-0.0284,-0.0277,-0.027,-0.0235,-0.0225,-0.0351,-0.0351,-0.0351,0,-0.0446,-0.0456,-0.0452,-0.0458,-0.046,-0.0453,-0.046,-0.0455,-0.0449,-0.0437,-0.0444,-0.0403,-0.0387,-0.0349,-0.0349,-0.0347,-0.032,-0.0345,-0.0283,-0.0275,-0.0268,-0.0234,-0.0223,-0.0351,-0.0351,-0.0351,-0.0351,0,-0.0464,-0.0474,-0.048,-0.0484,-0.0484,-0.0491,-0.0479,-0.0474,-0.0471,-0.0456,-0.0426,-0.0398,-0.0369,-0.0361,-0.0356,-0.0299,-0.0301,-0.0292,-0.028,-0.0261,-0.0226,-0.0215,-0.0352,-0.0352,-0.0352,-0.0351,0,0,-0.048,-0.0492,-0.0495,-0.0501,-0.0498,-0.0502,-0.0495,-0.0479,-0.047,-0.0448,-0.0423,-0.0387,-0.0362,-0.0346,-0.0323,-0.0271,-0.0205,-0.0265,-0.0262,-0.0227,-0.0089,-0.0115,-0.0104,-0.0187,-0.0184,-0.0182,-0.009,0,-0.0496,-0.0518,-0.0515,-0.0532,-0.054,-0.0526,-0.0519,-0.0501,-0.0483,-0.0454,-0.0402,-0.0375,-0.0359,-0.0345,-0.0287,-0.0232,-0.0173,-0.0232,-0.0115,-0.0112,-0.0133,-0.009,-0.0175,-0.0081,-0.0078,-0.0076,-0.0075,0,-0.0513,-0.0526,-0.0549,-0.0555,-0.0556,-0.0563,-0.0547,-0.054,-0.049,-0.0472,-0.042,-0.0383,-0.0308,-0.0298,-0.017,-0.0212,-0.0146,-0.0098,-0.0093,-0.0102,-0.0114,-0.0099,-0.0053,-0.0055,-0.0056,-0.0058,-0.0059,0,-0.053,-0.0548,-0.0569,-0.0573,-0.0577,-0.0581,-0.058,-0.0546,-0.0535,-0.0478,-0.0462,-0.0367,-0.0327,-0.0226,-0.0136,-0.0147,0.0003,0.0004,0.005,0.0048,0.0046,0.0038,0.0121,0.0121,0.012,0.012,0.012,0,-0.0545,-0.0563,-0.0584,-0.0598,-0.062,-0.0608,-0.0615,-0.0598,-0.056,-0.0538,-0.0473,-0.0431,-0.0305,-0.0213,-0.0125,-0.001,0.0018,0.0067,0.0082,0.0036,0.0026,0.0053,0.0044,0.0124,0.0123,0.0122,0.0122,0,-0.056,-0.0574,-0.0604,-0.0623,-0.0634,-0.065,-0.0657,-0.0654,-0.0619,-0.0587,-0.0568,-0.0466,-0.0348,-0.0229,-0.0064,-0.0005,0.0111,0.0151,0.0081,0.0087,0.0113,0.0103,0.0218,0.0218,0.0218,0.0218,0.0218,0,-0.0567,-0.0587,-0.0634,-0.066,-0.0676,-0.07,-0.0714,-0.069,-0.0679,-0.0605,-0.0586,-0.0469,-0.0391,-0.0181,-0.006,0.0112,0.0135,0.0187,0.0171,0.0126,0.013,0.0118,0.0108,0.0219,0.0219,0.0219,0.0219,0,-0.0581,-0.0606,-0.0633,-0.0694,-0.0728,-0.0754,-0.0767,-0.0759,-0.0714,-0.0686,-0.0579,-0.0463,-0.033,-0.0174,-0.0045,0.0079,0.0146,0.0189,0.019,0.0175,0.0128,0.0129,0.0118,0.0219,0.0219,0.0219,0.0219,0,-0.0592,-0.062,-0.0668,-0.0715,-0.0766,-0.0791,-0.0793,-0.0762,-0.0738,-0.0646,-0.0608,-0.0459,-0.0363,-0.019,-0.007,0.0042,0.0073,0.0102,0.0108,0.0109,0.0041,-0.0036,0.0033,0,0,0,0,0,-0.0596,-0.0631,-0.0683,-0.0736,-0.0788,-0.0812,-0.082,-0.0808,-0.0762,-0.0688,-0.0641,-0.0511,-0.0313,-0.0225,-0.0113,-0.0083,0.0074,0.0048,0.0106,0.0221,0.0221,0.0156,0,0,0,0,0,0,-0.06,-0.0652,-0.068,-0.0743,-0.0782,-0.0829,-0.0833,-0.0802,-0.0749,-0.0686,-0.0577,-0.0501,-0.031,-0.0377,-0.0116,-0.0082,-0.0035,0.0147,0.0149,0.0221,0.0221,0.0221,0.0154,0,0,0,0,0]}]]